Location: Ferchesar
(52.6477°N, 12.4298°E)
Time: 09:13:39
(UTC+01:00)

S-56A Canister/Altair - Pass Details

Date: 11 December 2021
Orbit: 633 x 2499 km, 38.9° (Epoch: 19 January)

Event Time Altitude Azimuth Distance (km) Brightness Sun altitude
Rises 00:25:53 0° 254° (WSW) 5,473 - -60.0°
Reaches altitude 10° 00:30:18 10° 246° (WSW) 4,176 - -59.9°
Maximum altitude 00:39:11 32° 190° (S) 2,193 - -59.6°
Drops below altitude 10° 00:45:30 10° 129° (SE) 2,928 - -59.3°
Sets 00:48:04 0° 119° (ESE) 3,665 - -59.1°
